THOR ABLESTAR DEB, 403

Orbit data source: Space-Track

THOR ABLESTAR DEB, 403 is space debris in LEO originally from a launch on Thu, 29 Jun 1961 UTC launched from the Air Force Eastern Test Range (AFETR). Debris objects in space refer to the collection of defunct objects orbiting the Earth. Examples of debris include non-operational satellites, rocket bodies, and fragments generated from explosions, collisions, or faulty payload assembly.

Loading next visibility...
Identifier
403, 1961-015EC
Orbit
LEO
Last TLE update
23 hours ago
Origin
Manufacturer
Unknown
Mission
Spacecraft
Bus & Motor
Unknown
Mass
Unknown
Launch date (UTC)
1961-06-29 (64 years ago)
Launch vehicle
Unknown
Launch site
Air Force Eastern Test Range (AFETR)
Object type
Payload
Rocket body
Debris
Shape & HBR
Unknown
Radar Cross Section
Small (<0.1 m²)

Expand to show TLE details & history

TLE from 23 hours ago
0 THOR ABLESTAR DEB
1 00403U 61015EC  25185.77366084  .00000004  00000-0  73561-4 0  9992
2 00403  66.8419  39.4025 0015792  46.6123  32.0629 13.81160002223171
Epoch: 2025-07-04T18:34Z
TLE epoch observation values (Epoch: 2025-07-04T18:34:04.296Z)
Latitude
64.50975°
Longitude
-98.94961°
Altitude
960.247 km
Speed
7.383 km/s
True Right ascension
06h 50m 21s
True Declination
64° 22' 46"
Sunlit
Object was in daylight at epoch
Visualization orbit readout
Latitude
46.70433°
Longitude
-11.26361°
Altitude
964.464 km
Speed
7.375 km/s
Apparent Right ascension
14h 57m 49s
Apparent Declination
8° 42' 13"
Sunlit
Object is in daylight
Visualization observer readout
Local Sidereal Time
05:19:10
Azimuth
42.067° NE
Elevation
-31.424°
Doppler factor
1
Orbital elements
Apogee altitude
969.757 km
Perigee altitude
946.586 km
Semi-major axis
7,336.308 km
Eccentricity
0.00158
Inclination
66.8419°
RAAN
39.4025°
Arg. of periapsis
46.6123°
True anomaly
Unknown
Mean anomaly
32.0629°
Eccentric anomaly
Unknown
Mean motion
3.45404 °/min
Orbital period
104.23 mins
BSTAR
0.000073561
Loading maneuver chart data...
Loading SW <> Apogee altitude chart data...

THOR ABLESTAR DEB Visibility forecast

Observer location: undefined°, undefined°

Span
Click to sort rows by Start time (UTC) header in descending order
Start Az.
Max El. time (UTC)
Max El. Az.
Max El.
End time (UTC)
End Az.
10 mins2025-07-06 00:17:49.237Z349.861° N2025-07-06 00:21:49.237Z51.017° ENE35.605°2025-07-06 00:27:49.237Z126.832° SE
9 mins2025-07-06 02:04:49.237Z303.33° NW2025-07-06 02:08:49.237Z253.348° W26.691°2025-07-06 02:13:49.237Z195.536° SSW
11 mins2025-07-06 15:29:49.237Z200.863° SSW2025-07-06 15:34:49.237Z138.639° SSE44.291°2025-07-06 15:40:49.237Z31.848° NE
4 mins2025-07-06 17:19:49.237Z280.496° WNW2025-07-06 17:22:49.237Z315.487° NNW19.567°2025-07-06 17:23:49.237Z328.564° NNW
|